STARLINK-4800 (53854 NORAD) Tracking and Keplerian Element Data

This shows tracking and keplerian element data for the satellite.

Feedback or suggestion? Click here.




ElementValue
Catalog53854
NameSTARLINK-4800
Epoch Orbit1053
Epoch Day325.33334491
Epoch Year2022
RAAN305.5587
Inclination53.2148
Eccentricity0.0004176
Argument of Perigee358.6038
Mean Anonmoly70.2976
Mean Motion15.73170332
Decay Rate0.00075331
L11 53854U 22114AN 22325.33334491 .00075331 00000+0 53684-3 0 9996
L22 53854 53.2148 305.5587 0004176 358.6038 70.2976 15.73170332 10536



Live tracking and technical data element details for STARLINK-4800 (NORAD 53854). STARLINK-4800 can be tracked NOW for your location showing map with azimuth and elevation plus other details from your city location.







IsCatalogInMostPopularTable: catalog: 53854, numindb: 3
Update: records affected: 1



GetName: 53854 STARLINK-4800

Hit Count: updated at: Thu, 08 Dec 2022 09:14:36 GMT